Home   Weather   Brownsville   Past weeks

Flag for USA Past Weather in Brownsville, Texas, USA — Yesterday and Last 2 Weeks

Now
66 °F

Clear.


Feels Like: 66 °F
Forecast: 57 / 76 °F
Wind: 12 mph from North

Location: Brownsville / South Padre Island International Airport

Current Time: Jan 22, 2017 at 4:22:03 am

Latest Report: Jan 22, 2017 at 3:53 am


Visibility: 10 mi

Pressure: 29.70 "Hg

Humidity: 40%

Dew Point: 41 °F

Location of BrownsvilleLocation

Past Weather in Brownsville — Graph

°F

Brownsville Temperature Yesterday

Maximum temperature yesterday: 93 °F (at 2:53 pm)
Minimum temperature yesterday: 57 °F (at 12:00 am)
Average temperature yesterday: 73 °F

High & Low Weather Summary for the Past Weeks

 TemperatureHumidityPressure
High93 °F (Jan 21, 2:53 pm)100% (Jan 14, 4:44 am)30.75 "Hg (Jan 14, 4:44 am)
Low31 °F (Jan 7, 6:53 am)15% (Jan 21, 2:53 pm)29.44 "Hg (Jan 21, 5:53 pm)
Average68 °F79%30.05 "Hg
* Reported Jan 7 2:53 am — Jan 22 2:53 am, Brownsville, Weather by CustomWeather, © 2017

Note: Actual official high and low records may vary slightly from our data, if they occured in-between our weather recording intervals... More about our weather records

Advertising

Brownsville Weather History for the Previous 24 Hours

Scroll right to see more
 ConditionsComfort  
Time TempWeatherWind HumidityBarometerVisibility
2:53 am
Sun, Jan 22
68 °FClear.16 mph40%29.67 "Hg10 mi
1:53 am69 °FClear.14 mph41%29.63 "Hg10 mi
12:53 am71 °FClear.17 mph53%29.59 "Hg10 mi
12:20 am72 °FClear.13 mph64%29.55 "Hg10 mi
11:53 pm
Sat, Jan 21
74 °FPassing clouds.12 mph76%29.49 "Hg10 mi
10:53 pm75 °FPassing clouds.16 mph64%29.46 "Hg10 mi
9:53 pm71 °FPassing clouds.14 mph59%29.45 "Hg10 mi
8:53 pm70 °FClear.12 mph66%29.45 "Hg10 mi
7:53 pm70 °FClear.13 mph61%29.45 "Hg10 mi
6:53 pm73 °FClear.9 mph53%29.45 "Hg10 mi
5:53 pm80 °FSunny.14 mph38%29.44 "Hg10 mi
4:53 pm87 °FSunny.17 mph39%29.44 "Hg10 mi
3:53 pm93 °FSunny.6 mph16%29.44 "Hg10 mi
2:53 pm93 °FSunny.3 mph15%29.46 "Hg10 mi
1:53 pm91 °FSunny.5 mph24%29.50 "Hg10 mi
12:53 pm89 °FSunny.6 mph29%29.55 "Hg10 mi
11:53 am87 °FSunny.7 mph32%29.60 "Hg10 mi
10:53 am81 °FSunny.9 mph49%29.65 "Hg10 mi
9:53 am73 °FSunny.7 mph81%29.65 "Hg10 mi
9:19 am69 °FScattered clouds.10 mph96%29.66 "Hg7 mi
8:53 am68 °FFog.9 mph100%29.65 "Hg5 mi
8:39 am67 °FFog.10 mph100%29.66 "Hg3 mi
8:12 am66 °FFog.8 mph100%29.66 "Hg1 mi
7:53 am66 °FFog.10 mph96%29.64 "Hg0 mi
7:36 am65 °FFog.6 mph100%29.64 "Hg0 mi
6:42 am64 °FFog.No wind100%29.63 "Hg0 mi
5:59 am65 °FFog.5 mph100%29.61 "Hg1 mi
5:34 am67 °FFog.8 mph100%29.61 "Hg1 mi
4:53 am69 °FFog.8 mph100%29.61 "Hg2 mi
4:18 am69 °FFog.12 mph96%29.62 "Hg4 mi
Weather by CustomWeather, © 2017

See weather overviewHow to use our weather pages